Location: Unspecified
(41.5000°N, 0.0000°E)
Time: 20:04:12
(UTC+00:00)

Vanguard 3 - Pass Details

Date: 21 June 2019
Orbit: 507 x 3264 km, 33.4° (Epoch: 20 July)

Event Time Altitude Azimuth Distance (km) Brightness Sun altitude
Rises 13:16:53 0° 253° (WSW) 5,521 11.7 66.1°
Reaches altitude 10° 13:21:23 10° 248° (WSW) 4,040 11.2 65.5°
Maximum altitude 13:30:26 44° 181° (S) 1,510 9.6 64.2°
Drops below altitude 10° 13:35:47 10° 110° (ESE) 2,397 9.5 63.3°
Sets 13:37:50 0° 103° (ESE) 3,116 10.0 63.0°
